Location: Jackson Park
(37.2862°N, 79.9123°W)
Time: 05:14:43
(UTC+00:00)

S-56A Canister/Altair - All Passes

Search period start: 10 May 2026 00:00
Search period end: 20 May 2026 00:00
Orbit: 633 x 2484 km, 38.9° (Epoch: 9 May)

Date Brightness Start Highest point End Pass type
(mag) Time Alt. Az. Time Alt. Az. Time Alt. Az.
10 May - 01:14:40 10° S 01:16:41 13° SE 01:18:42 10° ESE visible
10 May - 03:15:01 10° WSW 03:19:24 62° SSE 03:24:43 10° ENE visible
10 May - 05:18:01 10° W 05:23:01 76° N 05:30:07 10° E visible
10 May - 07:21:04 10° WNW 07:27:09 77° SSW 07:36:31 10° ESE visible
10 May - 09:24:38 10° W 09:31:34 36° SSW 09:41:25 10° SSE visible
10 May - 11:33:52 10° SW 11:36:14 11° SW 11:38:43 10° SSW daylight
11 May - 02:40:23 10° SW 02:44:40 51° SSE 02:49:33 10° E visible
11 May - 04:43:23 10° W 04:48:07 76° N 04:54:35 10° E visible
11 May - 06:46:26 10° WNW 06:52:08 83° SSW 07:00:44 10° ESE visible
11 May - 08:49:48 10° W 08:56:22 39° SSW 09:05:53 10° SE visible
11 May - 10:57:09 10° WSW 11:00:56 13° SW 11:05:12 10° SSW daylight
12 May - 02:05:46 10° SW 02:09:58 42° SSE 02:14:27 10° E visible
12 May - 04:08:43 10° W 04:13:17 78° N 04:19:10 10° E visible
12 May - 06:11:50 10° WNW 06:17:09 88° SSW 06:25:01 10° ESE visible
12 May - 08:15:02 10° W 08:21:15 42° SSW 08:30:19 10° SE visible
12 May - 10:21:16 10° WSW 10:25:41 15° SW 10:30:53 10° S daylight
13 May - 01:31:08 10° SW 01:35:17 35° SSE 01:39:25 10° E visible
13 May - 03:34:01 10° W 03:38:28 82° N 03:43:53 10° E visible
13 May - 05:37:13 10° WNW 05:42:14 86° NNE 05:49:23 10° ESE visible
13 May - 07:40:20 10° W 07:46:10 46° SSW 07:54:46 10° SE visible
13 May - 09:45:46 10° WSW 09:50:29 16° SW 09:56:13 10° S visible
14 May - 00:56:29 10° SSW 01:00:34 29° SSE 01:04:26 10° E visible
14 May - 02:59:16 10° WSW 03:03:41 87° NNW 03:08:44 10° ENE visible
14 May - 05:02:36 10° W 05:07:21 81° N 05:13:51 10° E visible
14 May - 07:05:40 10° W 07:11:10 50° SSW 07:19:14 10° SE visible
14 May - 09:10:30 10° WSW 09:15:19 18° SW 09:21:22 10° S visible
15 May - 00:21:51 10° SSW 00:25:51 24° SSE 00:29:29 10° E daylight
15 May - 02:24:28 10° WSW 02:28:56 85° SSE 02:33:41 10° ENE visible
15 May - 04:27:57 10° W 04:32:31 77° N 04:38:26 10° E visible
15 May - 06:31:02 10° W 06:36:13 55° SSW 06:43:43 10° SE visible
15 May - 08:35:24 10° WSW 08:40:14 20° SSW 08:46:24 10° S visible
15 May - 23:47:11 10° SSW 23:51:05 21° SSE 23:54:31 10° E daylight
16 May - 01:49:36 10° WSW 01:54:12 76° SSE 01:58:44 10° ENE visible
16 May - 03:53:15 10° W 03:57:42 74° N 04:03:08 10° E visible
16 May - 05:56:23 10° W 06:01:19 61° SSW 06:08:16 10° ESE visible
16 May - 08:00:25 10° W 08:05:10 22° SSW 08:11:21 10° SSE visible
16 May - 23:12:33 10° S 23:16:17 18° SSE 23:19:31 10° ESE daylight
17 May - 01:14:41 10° WSW 01:19:29 66° SSE 01:23:53 10° E visible
17 May - 03:18:29 10° W 03:22:54 72° N 03:27:56 10° E visible
17 May - 05:21:45 10° WNW 05:26:28 68° SSW 05:32:52 10° ESE night (unlit)
17 May - 07:25:32 10° W 07:30:10 24° SSW 07:36:16 10° SSE visible
17 May - 22:37:57 10° S 22:41:27 16° SSE 22:44:28 10° ESE daylight
18 May - 00:39:43 10° WSW 00:44:44 57° SSE 00:49:05 10° E daylight
18 May - 02:43:40 10° W 02:48:08 72° N 02:52:52 10° E visible
18 May - 04:47:06 10° WNW 04:51:40 75° SSW 04:57:34 10° ESE visible
18 May - 06:50:42 10° W 06:55:13 26° SSW 07:01:10 10° SSE night (unlit)
18 May - 22:03:25 10° S 22:06:34 14° SSE 22:09:19 10° ESE daylight
19 May - 00:04:40 10° SW 00:10:00 50° SSE 00:14:20 10° E daylight
19 May - 02:08:45 10° W 02:13:21 74° N 02:17:54 10° E visible
19 May - 04:12:25 10° WNW 04:16:53 83° SSW 04:22:20 10° ESE visible
19 May - 06:15:56 10° W 06:20:19 29° SSW 06:26:04 10° SSE night (unlit)
19 May - 21:29:03 10° S 21:31:38 12° SSE 21:33:58 10° ESE daylight
19 May - 23:29:34 10° SW 23:35:12 44° SSE 23:39:37 10° E daylight
